Forside
METAR-TAF:

METAR-TAF

Lufthavne :

Chariton Municipal Airport

Chariton, Iowa, USA

Breddekreds: 41-02N, længdekreds: 093-22W, højde: 320 m

Aktuelle vejr

Denne rapport blev lavet for 14 minutter siden, kl. 06:15 UTC
Vind 16 kt fra øst
Temperatur 9°C
Fugtighed 93%
Tryk 1014 hPa
Sigt: 16.1 km
Overskyet i en højde af 1100 ft

METAR: KCNC 210615Z AUTO 08016KT 10SM OVC011 09/08 A2993 RMK AO2

Tid: 01:29 (06:29 UTC)


TAF: fraværende

Vejrobservationer og prognoser fra mere end 4000 lufthavne (METAR og TAF).

De gule og røde prikker repræsenterer de meteorologiske stationer.

Flyt musen over at se navnet på stationen.

Så klik over at se vejr observationer og prognoser.

At skifte det kort: Klik på de grønne knapper med et sort kors for at zoome ind; på den grønne knap med en bindestreg for at zoome ud; eller på de grønne pile for tilstødende kort.


METAR-TAF: